Location: Passo di Treia
(43.2833°N, 13.3333°E)
Time: 17:11:09
(UTC+00:00)

Cosmos 1900 - Pass Details

Date: 09 December 2019
Orbit: 692 x 730 km, 66.1° (Epoch: 19 January)

Event Time Altitude Azimuth Distance (km) Brightness Sun altitude
Rises 16:37:36 0° 330° (NNW) 3,080 7.8 -11.7°
Reaches altitude 10° 16:39:59 10° 334° (NNW) 2,156 6.9 -12.2°
Maximum altitude 16:44:49 60° 55° (NE) 795 4.3 -13.0°
Drops below altitude 10° 16:49:37 10° 135° (SE) 2,141 6.6 -13.8°
Sets 16:51:59 0° 139° (SE) 3,056 7.4 -14.2°
